User: anonymous   Login
Location: Unspecified
(0.0000°N, 0.0000°E)
Time: 06:58:36
(UTC+00:00)
Language:

FALCON 9 R/B - Orbit

View from above orbital plane
View from above orbital plane
View from above satellite
View from above satellite

Ground track
Ground track

The orbit data is extracted from the following two-line orbital elements,

1 39271U 13055G   17202.85145179 +.00006662 +00000-0 +16882-3 0  9996
2 39271 080.9699 320.4549 0632139 099.7359 267.5773 14.37685520197609
Epoch (UTC): 21 July 2017 20:26:05
Eccentricity: 0.0632139
inclination: 80.9699°
perigee height: 314 km
apogee height: 1218 km
right ascension of ascending node: 320.4549°
argument of perigee: 99.7359°
revolutions per day: 14.37685520
mean anomaly at epoch: 267.5773°
orbit number at epoch: 19760

The dashed part of the orbit path shows where the satellite is in the earth's shadow,  

DLR